Regional Weather Roundup
Issued by NWS Wakefield, VA

Home | Current Version | Previous Version | Text Only | Print | Product List | Glossary On
Versions: 1 2 3 4 5 6 7 8 9 10 11 12 13 14 15 16 17 18 19 20 21 22 23 24 25 26 27 28 29 30 31 32 33 34 35 36 37 38 39 40 41 42 43 44 45 46 47 48 49 50
000
ASUS41 KAKQ 280610
RWRAKQ

REGIONAL WEATHER ROUNDUP
NATIONAL WEATHER SERVICE WAKEFIELD VA
100 AM EST FRI NOV 28 2014

Note: "fair" indicates few or no clouds below 12,000 feet with no
significant weather and/or obstructions to visibility. * = Denotes
station may not report precipitation (e.g., rain,snow,etc.),
thunder or fog.

VAZ042-051-052>054-056-280700-
NORTHERN VIRGINIA

CITY           SKY/WX    TMP DP  RH WIND       PRES   REMARKS
WASH NATIONAL  PTCLDY    38  23  55 NW12G22   30.19S
DULLES         PTCLDY    32  22  66 W13       30.19F WCI  22
FORT BELVOIR   CLEAR     35  21  56 NW14G24   30.19F
QUANTICO       CLEAR     35  22  58 NW10G20   30.21F
FREDERICKSBRG* FAIR      34  28  79 NW5       30.20S
STAFFORD*      CLEAR     32  24  72 NW7       30.24S
WARRENTON      CLEAR     33  27  79 N5        30.20S
CULPEPER*      PTCLDY    34  25  69 CALM      30.21S
MANASSAS*      CLEAR     34  25  69 NW12      30.20F
LEESBURG*      CLEAR     34  27  75 NW12G17   30.20S
WINCHESTER     CLEAR     34  19  55 W12G17    30.18S
FRONT ROYAL*   PTCLDY    32  21  64 W6        30.18F
LURAY*         CLEAR     32  25  74 W9G17     30.20S
$$

VAZ048-049-060>072-079>083-280700-
CENTRAL AND SOUTH CENTRAL VIRGINIA

CITY           SKY/WX    TMP DP  RH WIND       PRES   REMARKS
RICHMOND       CLEAR     35  24  64 W6        30.20S
CHESTERFIELD*  CLEAR     30  16  55 W3        30.21F
PETERSBURG*    CLEAR     34  27  74 W6        30.21S
HANOVER        CLEAR     32  24  72 W5        30.21F
TAPPAHANNOCK*  CLEAR     32  27  82 W5        30.20S
QUINTON*       CLEAR     32  28  85 CALM      30.20S
CHARLOTTSVILLE PTCLDY    35  19  52 VRB7      30.20S
GORDONSVILLE*  PTCLDY    34  24  68 W3        30.20S
ORANGE*        PTCLDY    36  27  69 W8        30.22S
LOUISA*        MOCLDY    36  25  64 NW6       30.19R
BUMPASS*       MOCLDY    31  25  78 CALM      30.20S
FARMVILLE*     CLEAR     33  24  68 W3        30.21S
CREWE*         CLEAR     33  22  64 W5        30.20S
FORT PICKETT*  CLEAR     32  24  72 W7        30.20S
CHASE CITY*    CLEAR     34  24  68 W5        30.23S
CLARKSVILLE*   CLEAR     32  23  69 NW5       30.23S
SOUTH HILL*    CLEAR     33  23  66 W6        30.27S
LAWRENCEVILLE* CLEAR     32  26  77 W3        30.21R
$$

VAZ088>098-280700-
SOUTHEAST VIRGINIA

CITY           SKY/WX    TMP DP  RH WIND       PRES   REMARKS
NORFOLK        CLOUDY    40  30  67 NW8       30.17F
VIRGINIA BEACH MOCLDY    40  31  70 NW7G21    30.17S
NORFOLK NAVAL  PTCLDY    41  31  67 NW12      30.19F
WEST POINT*    CLEAR     37  30  75 W6        30.21S
SALUDA*        FAIR      37  30  76 NW5       30.17F
NEWPORT NEWS   CLEAR     38  32  79 NW6       30.18F
LANGLEY AFB    CLEAR     36  34  92 NW6       30.19F
FORT EUSTIS    CLEAR     38  28  64 NW14      30.17F
WILLIAMSBURG*  CLEAR     36  36 100 NW8       30.20S
HR EXEC AP*    PTCLDY    36  30  80 NW3       30.21S
FRANKLIN*      PTCLDY    36  34  93 NW3       30.20S
WAKEFIELD      MOCLDY    35  30  82 CALM      30.20F
$$

VAZ020-022-025-037-045-280700-
WEST CENTRAL AND SOUTHWEST VIRGINIA

CITY           SKY/WX    TMP DP  RH WIND       PRES   REMARKS
STAUNTON*      PTCLDY    27  19  69 NW3       30.22S
WAYNESBORO*    CLEAR     29  17  62 W3        30.19S
HOT SPRINGS VA LGT SNOW  20  20 100 W10G16    30.05S VSB 1   WCI   9
LYNCHBURG      PTCLDY    32  18  56 NW6       30.24S
DANVILLE       CLEAR     33  21  61 W7        30.27S
SOUTH BOSTON*  CLEAR     34  19  55 W7        30.25S
MARTINSVILLE   CLOUDY    32  22  65 CALM      30.29F
ROANOKE        CLOUDY    33  17  51 NW10      30.26F WCI  25
BLACKSBURG     FLURRIES  28  25  86 W8        30.22F
DUBLIN*        CLOUDY    30  21  69 W9        30.23S
MARION*        FLURRIES  27  20  76 W12       30.24S WCI  17
HILLSVILLE*    CLOUDY    25  17  71 NW15      30.18F WCI  13
RICHLANDS*     FLURRIES  27  22  82 NW10G16   30.24S WCI  17
WISE*          FLURRIES  27  19  74 NW6       30.27S
ABINGDON*      CLOUDY    29  23  78 N7        30.28S
$$

MDZ021>025-VAZ099-100-280700-
SOUTHERN MARYLAND AND THE DELMARVA PENINSULA

CITY           SKY/WX    TMP DP  RH WIND       PRES   REMARKS
PATUXENT RIVER MOCLDY    36  27  69 NW10      30.16F
BAY BRIDGE APT   N/A     37  28  70 W13G20    30.15F
LEONARDTOWN    PTCLDY    34  27  75 W10       30.18F
DOVER          CLEAR     31  29  92 SW5       30.11S
GEORGETOWN     CLEAR     31  27  85 W3        30.14S
EASTON         MOCLDY    39  33  78 NW10G17   30.18S
CAMBRIDGE      MOCLDY    41  32  70 NW13G18   30.14F
SALISBURY      CLEAR     31  27  85 SW5       30.14F
OCEAN CITY     CLEAR     31  27  85 W3        30.14S
WALLOPS ISLAND CLEAR     31  29  92 NW8       30.15F
ACCOMACK*      MOCLDY    37  28  70 NW13      30.15F
$$

NCZ012>017-030>032-280700-
NORTH CENTRAL AND EASTERN NORTH CAROLINA

CITY           SKY/WX    TMP DP  RH WIND       PRES   REMARKS
ROANOKE RAPIDS CLEAR     34  27  75 NW5       30.22S
RALEIGH        CLEAR     35  22  58 NW6       30.25F
ELIZABETH CITY CLOUDY    43  35  73 NW12      30.18F
AHOSKIE*       CLOUDY    35  28  77 NW3       30.22S
EDENTON*       CLOUDY    40  36  85 NW7       30.20R
CURRITUCK*     CLOUDY    40  32  73 NW5       30.18F
KILL DEVIL HLS CLOUDY    41  33  73 N9G17     30.14F
MANTEO         CLOUDY    42  32  69 N16       30.16F
CAPE HATTERAS  PTCLDY    42  34  73 NW9G22    30.16S
TARBORO*       MOCLDY    33  28  80 W5        30.24S
GOLDSBORO      CLEAR     37  28  69 NW7       30.22F
WASHINGTON     CLEAR     36  27  71 NW5       30.22S
GREENVILLE     CLEAR     36  28  75 CALM      30.24R
NEW BERN       CLEAR     39  28  64 NW8       30.23R
WILMINGTON     CLEAR     36  31  82 NW6       30.24S
$$

VAZ048-280700-
ELSEWHERE

CITY           SKY/WX    TMP DP  RH WIND       PRES   REMARKS
HARRISBURG PA  PTCLDY    33  23  66 NW12      30.13S WCI  24
BALTIMORE      PTCLDY    34  24  67 W12       30.15S
ANNAPOLIS      MOCLDY    37  26  64 NW10      30.16S
ANDREWS AFB    CLOUDY    36  25  63 NW13      30.17S
PHILADELPHIA   PTCLDY    33  26  75 NW5       30.12F
WILDWOOD NJ*   MOCLDY    37  27  65 NW6       30.11S
HENDERSON NC   CLEAR     32  21  64 W7        30.23F
GREENSBORO     PTCLDY    32  20  61 NW7       30.26F
ROCKY MOUNT    CLEAR     35  24  64 NW7       30.24S
$$

VAZ100-280700-
MARINE

STATION/POSITION TIME  TEMP    WIND        PRES    WAVE   SWELL
                       AIR SEA DIR/SP/G            HT/PER HT/PER
                 (UTC) (F)     (DEG/KT/KT) (MB)    (FT/S) (FT/S)
CAPE MAY NJ      0600   38 48  310/  6/ 12 1019.5S
LEWES DE         0600   35 46  280/  7/  9 1020.0F
15NM E FENWICK I 0600   41 54              1019.2F   4/ 5
OCEAN-CITY-INLET 0600   34 48  320/  5/  6 1020.0F
WACHAPREAGUE VA  0600   39 47  300/  3/  8 1020.9F
THOMAS POINT MD  0600   38 47  310/ 17/ 20 1022.1F
GOOSES REEF MD   0600   39     310/ 14/ 17 1021.5S
COVE POINT MD    0600   37     320/ 12/ 18 1021.1F
SOLOMONS ISLAND  0600      48                N/A
BISHOPS HEAD MD  0600   39 43  320/ 12/ 16 1020.5S
PINEY POINT MD   0600          340/ 21/ 22   N/A
POTOMAC MD       0600   41     330/ 21/ 27 1020.8S
CAMBRIDGE MD     0600   40 45  310/ 13/ 20 1020.6F
LEWISETTA VA     0600   39 46  300/  8/ 11 1021.4F
RAPPAHANNOCK LGT 0600          320/ 22/ 24 1021.7R
STINGRAY PT      0600   40     320/ 16/ 19 1021.9S
YORK RVR RNG VA  0600   39     330/ 13/ 15 1021.4F
YORKTOWN VA      0600   39 50  290/ 10/ 12 1021.7S
JAMESTOWN VA     0600   38     340/ 14/ 16   N/A
DOMINION TERM VA 0600   41     340/ 12/ 16 1021.8F
KIPTOPEKE VA     0600      53  330/ 24/ 26   N/A
CHES BAY BRIDGE  0600   42 51  320/ 21/ 24 1021.1F
CAPE HENRY VA    0600   42     340/ 22/ 27 1020.0F
CHESAPEAKE LGHT  0500   43     340/ 22/ 25 1021.4F
WILLOUBY STN VA  0600   40     330/ 11/ 13 1020.5F
S CRANEY ISL VA  0600          300/  9/ 15 1021.7S
CAPE HENRY BUOY  0600      55                N/A     5/ 4   2/14
1ST LANDING BUOY 0600   43     330/ 21/ 27 1021.0F
CAPE CHARLES BUO 0600      54                N/A     4/ 4   2/10
64NM E OF VA BCH 0600   47 65  340/ 21/ 29 1018.9R   7/ 6   2/14
DUCK PIER NC     0600   43 53  330/ 19/ 23 1020.2S
44100 DUCK FRF   0600      57                N/A     6/ 6   2/14
44056 DUCK FRF   0600      54                N/A     5/ 6   2/14
OREGON INLET NC  0600   42 55  320/ 13/ 19 1020.9F
HATTERAS NC      0600   44 57  340/ 19/ 24 1021.6R
DIAMOND SHLS NC  0600   48     330/ 21/ 25 1020.2F   7/ 5   2/ 9
CAPE LOOKOUT NC  0500   44     330/ 19/ 21 1022.2R
$$



USA.gov is the U.S. government's official web portal to all federal, state and local government web resources and services.